[[{"header":{"parameterUnit":"m.s-1","parameterCategory":2,"la1":30.2991,"la2":30.254,"lo1":-89.0895,"lo2":-89.0444,"dy":0.0017,"dx":0.0017,"nx":28,"ny":28,"refTime":"2025-12-13T03:00:00:Z","depth":"0","parameterNumber":2,"parameterNumberName":"U-component_of_CURRENTS"},"data":[0,0,0,0,0,0,0,0,0,0,0,0,0,0,0,0,0,0,0,0,0,0,0,0,0,0,0,0,0,0,0,0,0,0,0,0,0,0,0,0,0,0,0,0,0,0,0,0,0,0,0,0,0,0,0,0,0,0,0.3537,0.3536,0,0.3446,0.3444,0.3443,0.3391,0.3392,0.3392,0.3392,0.3266,0.3262,0.3259,0,0,0,0,0,0,0,0,0,0,0,0,0,0.3575,0.3575,0.3537,0.3536,0.3536,0.3446,0.3444,0.3442,0.3391,0.3392,0.3392,0.3392,0.3267,0.3263,0.3258,0,0,0,0,0,0,0,0,0,0,0,0,0,0.3525,0.3575,0.3537,0.3503,0.3499,0.3446,0.3444,0.3442,0.3391,0.3392,0.3392,0.3392,0.3268,0.3263,0.3258,0.3217,0,0,0.3241,0.3239,0,0,0,0,0,0,0,0,0.3528,0.3523,0.3508,0.3505,0.3501,0.3434,0.3411,0.3367,0.3391,0.3427,0.3392,0.3393,0.3322,0.3312,0.3288,0.3211,0.3206,0.3241,0.3238,0.3235,0.3234,0,0,0,0,0,0,0,0.3531,0.3526,0.3496,0.3508,0.3503,0.346,0.3454,0.3402,0.3369,0.3424,0.3421,0.3418,0.3319,0.3293,0.3284,0.3204,0.3241,0.3236,0.3233,0.3231,0.3229,0.3232,0,0,0,0,0,0,0.3556,0.353,0.3499,0.3494,0.3521,0.346,0.3453,0.3451,0.337,0.336,0.3418,0.3416,0.3302,0.3291,0.328,0.3308,0.3235,0.323,0.3227,0.3226,0.323,0.3234,0,0,0,0,0,0,0.3557,0.3554,0.3503,0.3513,0.3504,0.346,0.3459,0.345,0.3428,0.3367,0.3355,0.3407,0.3302,0.3287,0.3248,0.3299,0.3228,0.3223,0.3222,0.3227,0.3232,0.3311,0,0,0,0,0,0,0.3559,0.3555,0.3558,0.3515,0.3505,0.3477,0.3458,0.3448,0.3428,0.3424,0.3354,0.3342,0.3301,0.3257,0.3243,0.3291,0.3219,0.3218,0.3225,0.323,0.3304,0.3318,0.333,0,0,0,0,0,0.356,0.3559,0.3558,0.3555,0.3512,0.3477,0.3467,0.3433,0.3427,0.3415,0.3379,0.3345,0.3288,0.3253,0.3236,0.3284,0.3215,0.3223,0.323,0.3299,0.3315,0.3329,0,0,0,0,0,0,0.3559,0.3553,0.3551,0.3544,0.3519,0.347,0.3458,0.3438,0.3398,0.34,0.3343,0.3328,0.3326,0.3296,0.3259,0.3312,0.3263,0.3267,0.3322,0.3336,0.3349,0.3366,0.3214,0,0,0,0,0,0.3568,0.3576,0.3552,0.3545,0.354,0.3502,0.3484,0.3466,0.3429,0.3411,0.3365,0.3345,0.3342,0.3329,0.3305,0.3301,0.3355,0.334,0.3353,0.3363,0.3373,0.3527,0.3555,0.3257,0.3257,0.3257,0,0,0.3562,0.3563,0.3563,0.3548,0.3528,0.3523,0.349,0.3472,0.3468,0.3404,0.3379,0.3367,0.335,0.3361,0.3363,0.3339,0.3481,0.3373,0.3381,0.3385,0.3538,0.3567,0.3593,0.3262,0.3261,0.326,0,0,0.3565,0.3562,0.3575,0.3564,0.3553,0.3535,0.3536,0.3497,0.3481,0.3454,0.3443,0.3466,0.3409,0.3439,0.3444,0.3514,0.3538,0.3518,0.3588,0.3738,0.3764,0.3787,0.3905,0.3938,0.3529,0.3529,0.3529,0,0.3558,0.358,0.3567,0.3578,0.3578,0.3549,0.3559,0.3535,0.3487,0.3496,0.346,0.3488,0.3461,0.3537,0.3565,0.3543,0.362,0.3521,0.3755,0.3779,0.3802,0.3917,0.3952,0.3534,0.3533,0.3533,0.3532,0,0.3574,0.3594,0.3598,0.3617,0.3608,0.361,0.3593,0.359,0.3574,0.3561,0.3607,0.3593,0.3623,0.364,0.3606,0.3765,0.3766,0.3749,0.3713,0.3837,0.395,0.3986,0.3541,0.3539,0.3538,0.3536,0,0,0.3554,0.3605,0.3607,0.3637,0.3637,0.3634,0.3649,0.3664,0.3699,0.3677,0.3739,0.3756,0.3767,0.3778,0.3781,0.3899,0.4115,0.389,0.3895,0.4,0.4446,0.4402,0.4436,0.4147,0.4153,0.4158,0.4465,0,0.3574,0.3629,0.3639,0.3679,0.3706,0.3705,0.3722,0.3734,0.374,0.3785,0.3825,0.3866,0.3815,0.3853,0.3966,0.4062,0.4212,0.4033,0.4316,0.4324,0.4265,0.4477,0.4286,0.454,0.45,0.4506,0.451,0,0.3587,0.3631,0.3686,0.3749,0.3758,0.3771,0.383,0.3839,0.3898,0.3906,0.3974,0.3987,0.4122,0.4077,0.4343,0.4232,0.4357,0.4443,0.4457,0.441,0.4347,0.441,0.4606,0.4359,0.4565,0.456,0.4556,0,0.3601,0.3663,0.372,0.3734,0.3789,0.3818,0.3841,0.3884,0.3912,0.4,0.4052,0.4175,0.426,0.4431,0.4552,0.4483,0.4866,0.4796,0.4891,0.4887,0.4776,0.4752,0.4758,0.506,0.5059,0.5058,0.5057,0,0.3627,0.3671,0.3735,0.3764,0.3835,0.3846,0.3912,0.3952,0.4014,0.4081,0.4121,0.4222,0.4363,0.4551,0.4658,0.4885,0.4967,0.4961,0.4994,0.4797,0.4773,0.4588,0.4483,0.507,0.5067,0.5065,0.5063,0,0.3643,0.368,0.3756,0.3827,0.3847,0.3896,0.3949,0.3986,0.4049,0.4154,0.4193,0.4322,0.4549,0.4702,0.4997,0.503,0.5093,0.5313,0.5048,0.5044,0.4832,0.474,0.4763,0.464,0.5466,0.5467,0.5468,0,0.3667,0.3704,0.3802,0.3829,0.3863,0.392,0.3944,0.4001,0.4037,0.4214,0.4272,0.4507,0.4647,0.5022,0.5152,0.5384,0.5181,0.5326,0.5157,0.4848,0.4772,0.4588,0.4467,0.5054,0.5052,0.505,0.5048,0,0.3708,0.3739,0.3791,0.3863,0.3899,0.394,0.3985,0.4029,0.4109,0.4201,0.4356,0.4495,0.4818,0.4932,0.5203,0.5307,0.5003,0.5291,0.5064,0.4548,0.4263,0.4146,0.4795,0.503,0.5032,0.5033,0.5034,0.5035,0.3729,0.3768,0.3824,0.3881,0.3918,0.3943,0.3949,0.4003,0.4079,0.4182,0.4362,0.4497,0.4667,0.4996,0.5065,0.4929,0.4957,0.4766,0.472,0.459,0.4337,0.4933,0.5131,0.5133,0.5135,0.5137,0.5138,0,0.3736,0.3763,0.3823,0.3872,0.3877,0.391,0.3945,0.3919,0.3976,0.4121,0.4235,0.4338,0.4421,0.4503,0.4472,0.4335,0.4185,0.4189,0.3841,0.3783,0.4403,0.4238,0.4136,0.4136,0.4136,0.4136,0.4137,0.4137,0.3731,0.377,0.3797,0.3808,0.3817,0.3778,0.3775,0.3776,0.3838,0.3845,0.3855,0.3942,0.397,0.394,0.3721,0.3677,0.3382,0.3313,0.3292,0.3626,0.3671,0.3714,0.3529,0.328,0.3279,0.2508,0.2501,0.2496]},{"header":{"parameterUnit":"m.s-1","parameterCategory":2,"la1":30.2991,"la2":30.254,"lo1":-89.0895,"lo2":-89.0444,"dy":0.0017,"dx":0.0017,"nx":28,"ny":28,"refTime":"2025-12-13T03:00:00:Z","depth":"0","parameterNumber":3,"parameterNumberName":"V-component_of_CURRENTS"},"data":[0,0,0,0,0,0,0,0,0,0,0,0,0,0,0,0,0,0,0,0,0,0,0,0,0,0,0,0,0,0,0,0,0,0,0,0,0,0,0,0,0,0,0,0,0,0,0,0,0,0,0,0,0,0,0,0,0,0,-0.1347,-0.1348,0,-0.144,-0.1441,-0.1441,-0.1472,-0.1472,-0.1472,-0.1472,-0.1405,-0.1403,-0.1401,0,0,0,0,0,0,0,0,0,0,0,0,0,-0.1164,-0.1166,-0.1346,-0.1348,-0.135,-0.144,-0.1441,-0.1441,-0.1472,-0.1472,-0.1472,-0.1472,-0.1406,-0.1404,-0.1401,0,0,0,0,0,0,0,0,0,0,0,0,0,-0.1243,-0.1167,-0.1346,-0.138,-0.1384,-0.144,-0.1441,-0.1441,-0.1472,-0.1472,-0.1472,-0.1472,-0.1407,-0.1404,-0.1401,-0.138,0,0,-0.1392,-0.1391,0,0,0,0,0,0,0,0,-0.1239,-0.1249,-0.1373,-0.1378,-0.1383,-0.1449,-0.1352,-0.1415,-0.1472,-0.1433,-0.1472,-0.1473,-0.1409,-0.1406,-0.1417,-0.1377,-0.1374,-0.1392,-0.139,-0.1389,-0.1388,0,0,0,0,0,0,0,-0.1233,-0.1245,-0.1378,-0.1375,-0.1381,-0.1381,-0.1392,-0.1364,-0.1411,-0.1436,-0.144,-0.1459,-0.1409,-0.142,-0.1415,-0.1373,-0.1392,-0.139,-0.1388,-0.1387,-0.1176,-0.1172,0,0,0,0,0,0,-0.1235,-0.124,-0.1375,-0.1381,-0.1316,-0.1384,-0.1396,-0.1423,-0.1415,-0.1417,-0.1459,-0.1461,-0.1425,-0.1419,-0.1413,-0.1305,-0.1389,-0.1386,-0.1385,-0.118,-0.1175,-0.1171,0,0,0,0,0,0,-0.1231,-0.1246,-0.1371,-0.1316,-0.1333,-0.1388,-0.1417,-0.1425,-0.1438,-0.1436,-0.1433,-0.1465,-0.1425,-0.1417,-0.1375,-0.1306,-0.1385,-0.1383,-0.1184,-0.1178,-0.1173,-0.1141,0,0,0,0,0,0,-0.1225,-0.1244,-0.1256,-0.1317,-0.1337,-0.1401,-0.1418,-0.1427,-0.1453,-0.1455,-0.1439,-0.1434,-0.1424,-0.1379,-0.1372,-0.1303,-0.138,-0.1189,-0.1182,-0.1175,-0.1147,-0.1135,-0.1125,0,0,0,0,0,-0.1218,-0.124,-0.1256,-0.1273,-0.1354,-0.1402,-0.141,-0.1446,-0.1453,-0.1457,-0.1435,-0.1434,-0.1325,-0.1376,-0.1368,-0.1296,-0.1193,-0.1184,-0.1175,-0.1153,-0.1138,-0.1125,0,0,0,0,0,0,-0.1165,-0.1248,-0.1266,-0.1311,-0.1351,-0.1409,-0.1424,-0.1443,-0.1435,-0.143,-0.1417,-0.1409,-0.1338,-0.1317,-0.1372,-0.1204,-0.1245,-0.1234,-0.123,-0.1216,-0.1205,-0.1178,-0.1378,0,0,0,0,0,-0.116,-0.1199,-0.1266,-0.1298,-0.1322,-0.1369,-0.1391,-0.1415,-0.1425,-0.1425,-0.141,-0.1361,-0.1294,-0.1262,-0.1219,-0.1148,-0.1101,-0.108,-0.1069,-0.106,-0.1026,-0.0884,-0.0857,-0.1142,-0.1142,-0.1142,0,0,-0.1147,-0.1199,-0.1219,-0.1289,-0.1325,-0.1337,-0.1381,-0.1417,-0.1398,-0.1413,-0.1371,-0.1339,-0.1269,-0.1185,-0.1146,-0.1161,-0.0961,-0.1049,-0.1043,-0.1013,-0.0872,-0.0845,-0.082,-0.1136,-0.1137,-0.1138,0,0,-0.1139,-0.1188,-0.1213,-0.1243,-0.1302,-0.1321,-0.1329,-0.1378,-0.1371,-0.1344,-0.1315,-0.1236,-0.1184,-0.1092,-0.1041,-0.0932,-0.0916,-0.0918,-0.0833,-0.0696,-0.0672,-0.065,-0.06,-0.0574,-0.0901,-0.0901,-0.0901,0,-0.1111,-0.1157,-0.1222,-0.1245,-0.1248,-0.1307,-0.1299,-0.1304,-0.1322,-0.1278,-0.1321,-0.1153,-0.1118,-0.0941,-0.0907,-0.0903,-0.0863,-0.0905,-0.0684,-0.066,-0.0638,-0.0592,-0.0563,-0.0899,-0.0899,-0.0899,-0.0899,0,-0.112,-0.1143,-0.1159,-0.1194,-0.12,-0.1213,-0.1226,-0.1213,-0.1212,-0.1195,-0.1067,-0.1016,-0.0901,-0.0868,-0.0864,-0.0664,-0.0703,-0.0702,-0.0731,-0.0608,-0.0568,-0.0538,-0.0895,-0.0896,-0.0897,-0.0897,0,0,-0.1067,-0.1148,-0.1145,-0.1137,-0.1169,-0.1168,-0.1122,-0.1074,-0.1006,-0.0996,-0.0871,-0.0759,-0.0736,-0.067,-0.0631,-0.0516,-0.0359,-0.0549,-0.0543,-0.0522,-0.0116,-0.0167,-0.0141,-0.0331,-0.0324,-0.0319,-0.0169,0,-0.1037,-0.1058,-0.1095,-0.1058,-0.1052,-0.1061,-0.0996,-0.095,-0.0915,-0.0817,-0.0724,-0.0609,-0.0656,-0.0588,-0.0477,-0.0373,-0.0272,-0.0403,-0.0216,-0.021,-0.0286,-0.0103,-0.0106,0.0028,-0.0141,-0.0136,-0.0133,0,-0.1002,-0.1023,-0.0999,-0.0963,-0.0955,-0.0923,-0.0807,-0.0769,-0.0652,-0.0616,-0.0502,-0.0457,-0.0273,-0.0342,-0.0104,-0.0194,-0.0146,-0.009,-0.0083,-0.0108,-0.0202,-0.0106,0.0087,-0.0135,-0.0088,-0.0091,-0.0095,0,-0.0903,-0.0924,-0.0893,-0.0892,-0.0876,-0.082,-0.0785,-0.0687,-0.061,-0.0479,-0.0394,-0.0232,-0.011,-0.0005,0.0066,0.0001,0.0302,0.0232,0.0229,0.022,0.0273,0.026,0.0268,0.0419,0.0419,0.0419,0.0418,0,-0.0833,-0.0798,-0.0848,-0.083,-0.0735,-0.0743,-0.061,-0.0565,-0.0448,-0.0305,-0.0278,-0.0114,-0.0012,0.0137,0.016,0.0294,0.0383,0.0298,0.0301,0.0276,0.0263,0.0112,-0.0025,0.0424,0.0423,0.0422,0.0421,0,-0.0713,-0.0762,-0.072,-0.0711,-0.0693,-0.0618,-0.0525,-0.0425,-0.0352,-0.0162,-0.0106,0.0042,0.0236,0.0301,0.0497,0.0441,0.0457,0.0563,0.0474,0.0465,0.0207,0.0073,0.0166,0.0086,0.0594,0.0594,0.0594,0,-0.0651,-0.0635,-0.0625,-0.0587,-0.0579,-0.0495,-0.0415,-0.0362,-0.026,-0.0047,0.0075,0.0281,0.0477,0.068,0.0663,0.0717,0.0534,0.0653,0.0549,0.0245,0.01,0.0011,-0.0071,0.0609,0.0609,0.061,0.061,0,-0.0528,-0.0538,-0.0514,-0.0453,-0.0386,-0.0302,-0.0201,-0.0107,-0.0006,0.0162,0.0411,0.0581,0.0746,0.0862,0.0853,0.0812,0.0472,0.0656,0.0431,0.0208,0.0038,-0.0058,0.0368,0.0613,0.0612,0.0612,0.0612,0.0612,-0.0424,-0.0384,-0.0374,-0.0296,-0.0221,-0.0106,0.0008,0.0135,0.0328,0.0629,0.0696,0.105,0.1035,0.1065,0.0881,0.0511,0.0525,0.0384,0.0272,0.0228,0.0089,0.0465,0.0648,0.0648,0.0648,0.0648,0.0648,0,-0.0315,-0.0288,-0.0215,-0.0129,-0.0013,-0.0011,0.0162,0.0308,0.0574,0.0918,0.1168,0.1478,0.13,0.1064,0.0591,0.0218,0.0059,-0.0012,-0.0143,-0.0188,0.0249,0.0179,0.0162,0.0162,0.0162,0.0162,0.0163,0.0163,-0.0254,-0.0184,-0.016,0.0032,0.0113,0.0293,0.0405,0.0639,0.0917,0.1445,0.1821,0.207,0.1934,0.076,-0.0042,-0.0238,-0.054,-0.0567,-0.0715,-0.0482,-0.0455,-0.043,-0.0529,-0.0693,-0.0694,-0.1101,-0.1105,-0.1109]}],[{"header":{"parameterUnit":"m.s-1","parameterCategory":2,"la1":30.2991,"la2":30.254,"lo1":-89.0895,"lo2":-89.0444,"dy":0.0017,"dx":0.0017,"nx":28,"ny":28,"refTime":"2025-12-13T03:00:00:Z","depth":"2","parameterNumber":2,"parameterNumberName":"U-component_of_CURRENTS"},"data":[0,0,0,0,0,0,0,0,0,0,0,0,0,0,0,0,0,0,0,0,0,0,0,0,0,0,0,0,0,0,0,0,0,0,0,0,0,0,0,0,0,0,0,0,0,0,0,0,0,0,0,0,0,0,0,0,0,0,0.1862,0.1863,0,0.1879,0.1879,0.1879,0.1854,0.1853,0.1852,0.1852,0.1858,0.1859,0.1859,0,0,0,0,0,0,0,0,0,0,0,0,0,0.1859,0.1859,0.1862,0.1863,0.1863,0.1879,0.1879,0.1879,0.1854,0.1853,0.1852,0.1851,0.1858,0.1858,0.1859,0,0,0,0,0,0,0,0,0,0,0,0,0,0.1865,0.1859,0.1862,0.1854,0.1853,0.1879,0.1879,0.1879,0.1854,0.1853,0.1852,0.1851,0.1857,0.1858,0.186,0.1889,0,0,0.1863,0.1864,0,0,0,0,0,0,0,0,0.1865,0.1865,0.1855,0.1854,0.1854,0.1865,0.1881,0.1883,0.1854,0.1852,0.1852,0.1851,0.1861,0.1862,0.1865,0.1889,0.1889,0.1864,0.1864,0.1865,0.1865,0,0,0,0,0,0,0,0.1864,0.1864,0.1867,0.1855,0.1855,0.1867,0.1866,0.1881,0.1861,0.1852,0.1851,0.1856,0.186,0.1864,0.1865,0.189,0.1864,0.1865,0.1865,0.1866,0.2009,0.2012,0,0,0,0,0,0,0.1864,0.1864,0.1867,0.1868,0.1859,0.1868,0.1866,0.1861,0.1861,0.186,0.1857,0.1855,0.1862,0.1864,0.1865,0.1957,0.1865,0.1866,0.1867,0.2006,0.201,0.2013,0,0,0,0,0,0,0.1864,0.1864,0.1866,0.1868,0.187,0.1869,0.1863,0.1862,0.1866,0.1865,0.1863,0.1862,0.1862,0.1863,0.1901,0.1954,0.1867,0.1868,0.2002,0.2007,0.2011,0.2103,0,0,0,0,0,0,0.1864,0.1864,0.1863,0.1868,0.1869,0.1897,0.1864,0.1863,0.1871,0.1869,0.1869,0.1868,0.1861,0.1899,0.1902,0.1954,0.1869,0.1998,0.2004,0.201,0.2096,0.211,0.2122,0,0,0,0,0,0.1863,0.1866,0.1863,0.1863,0.1867,0.1898,0.1901,0.1895,0.1873,0.1891,0.1894,0.1868,0.1938,0.1902,0.1905,0.1959,0.1996,0.2003,0.2009,0.209,0.2108,0.2122,0,0,0,0,0,0,0.1865,0.1864,0.186,0.1862,0.1887,0.1895,0.1907,0.1901,0.1917,0.191,0.1899,0.1901,0.1956,0.1949,0.191,0.2021,0.1966,0.1974,0.2027,0.2043,0.2056,0.2083,0.187,0,0,0,0,0,0.1867,0.1865,0.188,0.1885,0.1897,0.1903,0.1913,0.1913,0.1926,0.193,0.1934,0.195,0.1989,0.2005,0.2029,0.2083,0.2114,0.2125,0.2138,0.2149,0.2176,0.2291,0.2317,0.2035,0.2035,0.2035,0,0,0.1867,0.1869,0.1867,0.1886,0.1898,0.1938,0.1906,0.1929,0.1967,0.1931,0.1978,0.1991,0.2013,0.208,0.2105,0.2078,0.2243,0.2158,0.2166,0.2188,0.2301,0.2328,0.2352,0.204,0.2039,0.2038,0,0,0.1884,0.1873,0.1888,0.1915,0.1943,0.1959,0.1969,0.1989,0.2002,0.2053,0.2048,0.2101,0.2134,0.2181,0.2204,0.2307,0.2306,0.2308,0.2398,0.2509,0.2534,0.2555,0.2614,0.264,0.2318,0.2318,0.2318,0,0.1889,0.1908,0.1902,0.1939,0.197,0.1974,0.2021,0.2046,0.2078,0.2115,0.2081,0.219,0.2195,0.2311,0.2348,0.2339,0.2383,0.233,0.2527,0.255,0.257,0.2625,0.2653,0.2323,0.2322,0.2322,0.2321,0,0.1926,0.1952,0.1968,0.2015,0.205,0.2091,0.2131,0.217,0.2182,0.2217,0.2316,0.2338,0.241,0.2424,0.2415,0.2572,0.2549,0.2527,0.2485,0.2604,0.2654,0.2682,0.2331,0.2329,0.2327,0.2326,0,0,0.1917,0.1981,0.199,0.2029,0.2095,0.2128,0.2208,0.2294,0.236,0.24,0.2504,0.2575,0.2588,0.2619,0.2624,0.2717,0.2884,0.269,0.2694,0.2744,0.311,0.2819,0.282,0.2902,0.2908,0.2912,0.308,0,0.1957,0.2032,0.2059,0.2149,0.2198,0.2243,0.2322,0.2398,0.2459,0.2561,0.2619,0.2712,0.2663,0.2709,0.2799,0.2873,0.2964,0.2839,0.2992,0.2996,0.272,0.2846,0.2692,0.2805,0.3106,0.3111,0.3114,0,0.1993,0.2041,0.2126,0.2226,0.2252,0.2309,0.244,0.2513,0.2657,0.2707,0.2815,0.2857,0.3007,0.2937,0.3138,0.3063,0.3105,0.3143,0.315,0.2869,0.2756,0.2739,0.2843,0.3159,0.3156,0.3152,0.3149,0,0.1992,0.2092,0.2159,0.2192,0.2304,0.2358,0.2429,0.2563,0.2638,0.2818,0.2893,0.3053,0.3138,0.3249,0.3298,0.3254,0.3496,0.3441,0.322,0.3199,0.3091,0.3047,0.3601,0.3601,0.3601,0.36,0.36,0,0.2021,0.2077,0.2162,0.2197,0.229,0.2371,0.2488,0.258,0.2732,0.2839,0.2966,0.3072,0.3228,0.3352,0.339,0.3373,0.3575,0.3264,0.3239,0.3108,0.3067,0.3386,0.3359,0.3607,0.3605,0.3604,0.3603,0,0.2003,0.2062,0.2138,0.2249,0.2286,0.2351,0.2488,0.2573,0.2724,0.2874,0.2939,0.3142,0.3288,0.339,0.3574,0.3448,0.3494,0.3436,0.3227,0.3168,0.3101,0.3078,0.322,0.3212,0.3205,0.3198,0.3193,0,0.1998,0.2035,0.2143,0.218,0.2226,0.2328,0.2396,0.255,0.2633,0.2891,0.2954,0.3156,0.3203,0.3318,0.3284,0.3284,0.3391,0.303,0.2878,0.3109,0.3073,0.306,0.3046,0.2808,0.2801,0.2794,0.2789,0,0.198,0.2014,0.2065,0.2141,0.2204,0.2279,0.2385,0.2436,0.2624,0.2708,0.2852,0.2916,0.3048,0.2956,0.2905,0.2878,0.3002,0.2879,0.3306,0.2844,0.2711,0.2675,0.268,0.2732,0.2738,0.2742,0.2745,0.2747,0.1948,0.1967,0.2026,0.2088,0.2155,0.2198,0.2214,0.2303,0.2359,0.2427,0.2594,0.2588,0.2681,0.2474,0.2439,0.2434,0.2584,0.2462,0.249,0.2523,0.2361,0.2213,0.2112,0.2114,0.2116,0.2118,0.2119,0,0.1891,0.1921,0.1972,0.2022,0.2034,0.2117,0.2177,0.2103,0.2074,0.2168,0.2171,0.1986,0.1928,0.2087,0.1986,0.1887,0.1968,0.1813,0.1968,0.2024,0.2075,0.1896,0.1522,0.152,0.1517,0.1515,0,0,0.1863,0.1868,0.1887,0.1878,0.1915,0.1887,0.1885,0.1766,0.1761,0.1614,0.1622,0.1712,0.1921,0.1646,0.1644,0.1584,0.1782,0.1519,0.2008,0.2245,0.2292,0.2464,0.225,0,0,0,0,0]},{"header":{"parameterUnit":"m.s-1","parameterCategory":2,"la1":30.2991,"la2":30.254,"lo1":-89.0895,"lo2":-89.0444,"dy":0.0017,"dx":0.0017,"nx":28,"ny":28,"refTime":"2025-12-13T03:00:00:Z","depth":"2","parameterNumber":3,"parameterNumberName":"V-component_of_CURRENTS"},"data":[0,0,0,0,0,0,0,0,0,0,0,0,0,0,0,0,0,0,0,0,0,0,0,0,0,0,0,0,0,0,0,0,0,0,0,0,0,0,0,0,0,0,0,0,0,0,0,0,0,0,0,0,0,0,0,0,0,0,0.0132,0.0131,0,0.0001,-0.0,-0.0002,-0.0111,-0.0112,-0.0113,-0.0113,-0.0296,-0.03,-0.0304,0,0,0,0,0,0,0,0,0,0,0,0,0,0.0238,0.0237,0.0133,0.0131,0.013,0.0002,-0.0,-0.0002,-0.011,-0.0112,-0.0113,-0.0114,-0.0295,-0.03,-0.0304,0,0,0,0,0,0,0,0,0,0,0,0,0,0.0156,0.0236,0.0133,0.0062,0.0054,0.0002,-0.0,-0.0003,-0.011,-0.0112,-0.0113,-0.0114,-0.0293,-0.0299,-0.0305,-0.0313,0,0,-0.0323,-0.0326,0,0,0,0,0,0,0,0,0.0161,0.0152,0.0074,0.0067,0.0058,-0.0038,-0.003,-0.0108,-0.011,-0.005,-0.0113,-0.0115,-0.0212,-0.0225,-0.0249,-0.0321,-0.0329,-0.0324,-0.0327,-0.033,-0.0332,0,0,0,0,0,0,0,0.0167,0.0157,0.0078,0.0072,0.0063,0.0019,0.0006,-0.0046,-0.0124,-0.0055,-0.0063,-0.0074,-0.0217,-0.0242,-0.0254,-0.0332,-0.0324,-0.0329,-0.0332,-0.0335,-0.0463,-0.0463,0,0,0,0,0,0,0.0191,0.0163,0.0083,0.0075,0.0109,0.0019,0.0004,-0.0007,-0.0122,-0.014,-0.0072,-0.0078,-0.0232,-0.0247,-0.0261,-0.03,-0.033,-0.0335,-0.0339,-0.0463,-0.0463,-0.0463,0,0,0,0,0,0,0.0194,0.0186,0.0088,0.0117,0.0102,0.0019,0.0007,-0.0009,-0.0052,-0.0134,-0.0154,-0.0101,-0.0233,-0.0252,-0.0317,-0.0308,-0.0338,-0.0343,-0.0463,-0.0463,-0.0463,-0.0365,0,0,0,0,0,0,0.0198,0.0187,0.018,0.0119,0.0101,0.0055,0.0008,-0.0011,-0.0054,-0.0064,-0.0165,-0.0182,-0.0236,-0.0308,-0.0323,-0.0316,-0.0348,-0.0463,-0.0463,-0.0463,-0.0368,-0.0361,-0.0355,0,0,0,0,0,0.0202,0.02,0.0181,0.017,0.0097,0.0055,0.0042,-0.0024,-0.0054,-0.0069,-0.0138,-0.018,-0.0316,-0.0312,-0.033,-0.0325,-0.0464,-0.0463,-0.0463,-0.0371,-0.0363,-0.0356,0,0,0,0,0,0,0.0233,0.0187,0.0165,0.0146,0.0105,0.0037,0.0016,-0.0023,-0.0089,-0.0105,-0.0183,-0.0205,-0.0258,-0.0305,-0.0299,-0.0361,-0.0395,-0.0398,-0.0319,-0.0312,-0.0305,-0.0269,-0.0353,0,0,0,0,0,0.0243,0.023,0.018,0.0163,0.0147,0.0083,0.0055,0.0013,-0.0047,-0.0079,-0.0146,-0.0214,-0.0266,-0.03,-0.0358,-0.0392,-0.0399,-0.04,-0.0393,-0.0387,-0.037,-0.0367,-0.0358,-0.0461,-0.0461,-0.0461,0,0,0.0248,0.0223,0.0212,0.0169,0.0131,0.0117,0.0061,0.0022,0.0007,-0.0086,-0.0135,-0.0199,-0.0272,-0.0312,-0.0339,-0.0353,-0.0361,-0.0387,-0.0381,-0.0367,-0.0366,-0.0355,-0.0346,-0.0461,-0.0461,-0.0461,0,0,0.0263,0.0234,0.0231,0.0209,0.0163,0.0131,0.0123,0.0057,0.0022,-0.0028,-0.0092,-0.0144,-0.0237,-0.0274,-0.0307,-0.0297,-0.0328,-0.0324,-0.026,-0.0257,-0.0247,-0.0239,-0.0221,-0.0212,-0.0317,-0.0317,-0.0317,0,0.0268,0.0264,0.0222,0.022,0.0211,0.0145,0.0148,0.0109,0.0028,0.0018,-0.0034,-0.0136,-0.0212,-0.0228,-0.0238,-0.028,-0.0279,-0.028,-0.0244,-0.0237,-0.023,-0.0214,-0.0205,-0.0312,-0.0313,-0.0313,-0.0314,0,0.0285,0.0283,0.0281,0.0265,0.025,0.0239,0.0198,0.0172,0.0122,0.0088,0.0047,-0.0046,-0.0101,-0.0134,-0.0194,-0.018,-0.0194,-0.0235,-0.0254,-0.0213,-0.0199,-0.0192,-0.0305,-0.0307,-0.0309,-0.031,0,0,0.029,0.0295,0.0292,0.0309,0.0277,0.0272,0.0263,0.0247,0.026,0.0176,0.0198,0.0084,0.0039,0.0,-0.0069,-0.0077,-0.0046,-0.0135,-0.0137,-0.0098,-0.0021,-0.014,-0.0144,-0.0078,-0.0077,-0.0075,-0.0024,0,0.0313,0.0342,0.0332,0.0361,0.0378,0.0345,0.0355,0.0334,0.0302,0.0307,0.0234,0.0213,0.0092,0.0074,0.0043,-0.002,-0.0025,-0.0055,-0.0084,-0.0084,-0.018,-0.0139,-0.0122,-0.0085,-0.0017,-0.0016,-0.0015,0,0.0332,0.0356,0.0394,0.0439,0.0443,0.0447,0.0473,0.0476,0.0472,0.0454,0.0424,0.0369,0.0335,0.0232,0.0159,0.0146,0.0068,0.0018,0.0018,-0.0121,-0.019,-0.0121,-0.0074,-0.0003,-0.0004,-0.0005,-0.0006,0,0.037,0.0402,0.0443,0.0452,0.0483,0.0494,0.0507,0.0512,0.0552,0.0559,0.0599,0.0529,0.0529,0.0418,0.0272,0.0225,0.0217,0.0139,-0.0029,-0.0037,-0.0043,-0.0056,0.0105,0.0105,0.0105,0.0105,0.0105,0,0.041,0.044,0.0461,0.0485,0.0548,0.0546,0.0615,0.0619,0.0672,0.0768,0.0678,0.0756,0.0576,0.0534,0.0367,0.0198,0.0285,-0.0001,-0.0033,-0.0012,-0.0022,0.0021,0.001,0.0107,0.0107,0.0106,0.0106,0,0.0446,0.0455,0.0513,0.0553,0.0568,0.0612,0.0695,0.0765,0.079,0.0922,0.0943,0.0951,0.0889,0.0701,0.0561,0.0335,0.018,0.0101,0.0136,0.0103,-0.0097,-0.0103,-0.0087,-0.0091,-0.0094,-0.0096,-0.0099,0,0.0469,0.0499,0.0565,0.0612,0.0626,0.0693,0.0763,0.0814,0.0915,0.1063,0.1161,0.1147,0.1135,0.0866,0.0526,0.0219,0.02,-0.0,-0.0131,-0.0084,-0.0116,-0.0117,-0.0119,-0.0071,-0.0072,-0.0074,-0.0075,0,0.0525,0.0538,0.0594,0.0691,0.0761,0.0869,0.0973,0.108,0.1191,0.1309,0.1501,0.15,0.1225,0.0911,0.0431,0.0221,0.0027,-0.0051,0.0051,-0.0068,-0.0078,-0.0107,-0.0107,-0.0089,-0.0087,-0.0086,-0.0086,-0.0085,0.0566,0.0618,0.0692,0.079,0.0884,0.1044,0.1171,0.1326,0.1519,0.1672,0.1669,0.1615,0.1256,0.0596,0.0292,-0.0052,-0.0079,-0.0248,-0.0238,-0.0228,-0.0278,-0.0299,-0.0357,-0.0357,-0.0357,-0.0357,-0.0357,0,0.063,0.0691,0.0793,0.0931,0.107,0.109,0.1323,0.1465,0.1728,0.1753,0.1804,0.1394,0.0991,0.0637,0.0091,-0.0278,-0.0251,-0.0356,-0.0241,-0.0229,-0.0218,-0.0263,-0.034,-0.034,-0.034,-0.034,0,0,0.0668,0.0778,0.0841,0.1074,0.1169,0.1386,0.1534,0.1743,0.1824,0.1833,0.1722,0.1446,0.1022,0.0618,0.0205,-0.0049,-0.0053,-0.0099,-0.0092,0.0103,0.012,-0.0152,-0.021,0,0,0,0,0]}],[{"header":{"parameterUnit":"m.s-1","parameterCategory":2,"la1":30.2991,"la2":30.254,"lo1":-89.0895,"lo2":-89.0444,"dy":0.0017,"dx":0.0017,"nx":28,"ny":28,"refTime":"2025-12-13T03:00:00:Z","depth":"4","parameterNumber":2,"parameterNumberName":"U-component_of_CURRENTS"},"data":[0,0,0,0,0,0,0,0,0,0,0,0,0,0,0,0,0,0,0,0,0,0,0,0,0,0,0,0,0,0,0,0,0,0,0,0,0,0,0,0,0,0,0,0,0,0,0,0,0,0,0,0,0,0,0,0,0,0,0.062,0.0621,0,0.0677,0.0678,0.0678,0.0708,0.0708,0.0708,0.0708,0.078,0.0782,0.0784,0,0,0,0,0,0,0,0,0,0,0,0,0,0.0549,0.055,0.062,0.0621,0.0622,0.0677,0.0678,0.0679,0.0708,0.0708,0.0708,0.0708,0.078,0.0782,0.0784,0,0,0,0,0,0,0,0,0,0,0,0,0,0.0589,0.055,0.062,0.0644,0.0647,0.0677,0.0678,0.0679,0.0708,0.0708,0.0708,0.0709,0.0779,0.0782,0.0784,0.0796,0,0,0.0792,0.0794,0,0,0,0,0,0,0,0,0.0586,0.0591,0.064,0.0643,0.0646,0.0687,0.0679,0.0719,0.0708,0.0683,0.0708,0.0709,0.0751,0.0756,0.0764,0.0799,0.0802,0.0793,0.0794,0.0795,0.0796,0,0,0,0,0,0,0,0.0584,0.0589,0.0641,0.0641,0.0644,0.0657,0.0662,0.0687,0.0714,0.0685,0.0688,0.0697,0.0753,0.0762,0.0766,0.0803,0.0793,0.0795,0.0797,0.0798,0.0916,0.0918,0,0,0,0,0,0,0.0579,0.0586,0.0639,0.0643,0.0618,0.0658,0.0664,0.0672,0.0714,0.0721,0.0696,0.0698,0.0757,0.0763,0.0769,0.084,0.0795,0.0798,0.0799,0.0915,0.0916,0.0918,0,0,0,0,0,0,0.0577,0.0583,0.0637,0.0617,0.0625,0.0659,0.0668,0.0673,0.0703,0.0722,0.0729,0.0723,0.0757,0.0765,0.0814,0.0841,0.0799,0.0801,0.0913,0.0915,0.0917,0.0946,0,0,0,0,0,0,0.0575,0.0582,0.0591,0.0617,0.0626,0.0666,0.0668,0.0674,0.0707,0.071,0.0747,0.0753,0.0758,0.081,0.0816,0.0844,0.0804,0.0911,0.0914,0.0917,0.0944,0.095,0.0955,0,0,0,0,0,0.0572,0.0581,0.0591,0.0598,0.0636,0.0667,0.0673,0.0696,0.0709,0.0724,0.0755,0.0753,0.0833,0.0813,0.0821,0.0849,0.0909,0.0913,0.0916,0.0941,0.0948,0.0954,0,0,0,0,0,0,0.0552,0.0586,0.0597,0.0616,0.0645,0.0672,0.0693,0.0709,0.0745,0.0758,0.0773,0.0781,0.0835,0.0841,0.0819,0.0893,0.0871,0.0876,0.0887,0.0894,0.09,0.0913,0.0806,0,0,0,0,0,0.0552,0.057,0.0604,0.0619,0.064,0.0672,0.069,0.0709,0.0741,0.0758,0.0787,0.082,0.0852,0.0872,0.0901,0.094,0.0955,0.0964,0.097,0.0975,0.0992,0.1029,0.1039,0.093,0.093,0.093,0,0,0.055,0.057,0.0581,0.0617,0.0646,0.0675,0.0684,0.0722,0.0751,0.0761,0.0819,0.0845,0.0869,0.0915,0.0939,0.0925,0.1015,0.0979,0.0983,0.0997,0.1034,0.1044,0.1054,0.0932,0.0932,0.0931,0,0,0.0554,0.0576,0.0598,0.0621,0.0667,0.069,0.0706,0.0753,0.0783,0.0835,0.0853,0.0898,0.0946,0.0969,0.0984,0.104,0.1046,0.105,0.1087,0.1122,0.1131,0.114,0.1174,0.1185,0.1049,0.1049,0.1049,0,0.0546,0.058,0.0609,0.0634,0.0656,0.07,0.0729,0.0765,0.0821,0.0858,0.086,0.0963,0.0971,0.1037,0.105,0.1052,0.1076,0.1054,0.1129,0.1137,0.1145,0.1179,0.119,0.1051,0.1051,0.1051,0.105,0,0.0566,0.0597,0.0615,0.0661,0.0687,0.0721,0.077,0.082,0.0864,0.0901,0.0991,0.1021,0.1087,0.1088,0.1082,0.1151,0.1152,0.1132,0.1108,0.1158,0.119,0.1202,0.1054,0.1053,0.1052,0.1052,0,0,0.054,0.0614,0.0622,0.0652,0.0705,0.0733,0.0794,0.0865,0.0933,0.0989,0.107,0.1119,0.1161,0.1183,0.1196,0.1215,0.1274,0.1199,0.12,0.1227,0.1365,0.1251,0.1253,0.1269,0.1271,0.1273,0.1365,0,0.0552,0.06,0.0635,0.069,0.0724,0.0778,0.0834,0.0902,0.0976,0.1067,0.112,0.1203,0.1191,0.1238,0.1262,0.1276,0.1308,0.1252,0.1319,0.1321,0.1208,0.1263,0.128,0.1374,0.1377,0.1378,0.138,0,0.056,0.0595,0.0643,0.0724,0.0747,0.0791,0.0903,0.0962,0.1086,0.1149,0.1247,0.1297,0.137,0.1338,0.1416,0.1385,0.1389,0.1385,0.1388,0.1282,0.1229,0.1315,0.1401,0.1399,0.1398,0.1396,0.1395,0,0.0525,0.0603,0.0643,0.0663,0.0757,0.081,0.0878,0.0997,0.1073,0.1219,0.129,0.1393,0.146,0.1485,0.1482,0.1467,0.1537,0.1513,0.1424,0.1416,0.1476,0.1467,0.157,0.157,0.1569,0.1569,0.1569,0,0.0511,0.055,0.0643,0.0662,0.0739,0.0812,0.0926,0.1012,0.1153,0.1247,0.1346,0.1422,0.1499,0.1541,0.1525,0.1508,0.1583,0.1449,0.1436,0.1487,0.1477,0.1485,0.1474,0.1573,0.1572,0.1571,0.157,0,0.0469,0.0521,0.0575,0.0681,0.0722,0.0782,0.0941,0.1023,0.1168,0.1294,0.1342,0.1475,0.1534,0.1574,0.1613,0.1562,0.1545,0.1515,0.1579,0.1564,0.14,0.139,0.1458,0.1455,0.1452,0.145,0.1448,0,0.0448,0.047,0.0572,0.0605,0.0661,0.0773,0.0846,0.101,0.11,0.1299,0.134,0.1461,0.1526,0.1513,0.1542,0.1538,0.1503,0.1501,0.1446,0.141,0.1391,0.1385,0.1378,0.1444,0.1443,0.1442,0.1442,0,0.0407,0.0447,0.0491,0.0558,0.063,0.0711,0.0838,0.0905,0.1092,0.1227,0.1328,0.1372,0.1437,0.146,0.1466,0.1444,0.1505,0.1473,0.1479,0.1427,0.1394,0.1376,0.1373,0.1432,0.1434,0.1434,0.1435,0,0.0372,0.0389,0.0442,0.0505,0.0574,0.0628,0.0714,0.0834,0.0944,0.1183,0.1199,0.1313,0.1428,0.141,0.1397,0.1386,0.1371,0.1322,0.1335,0.1346,0.1258,0.1197,0.118,0,0,0,0,0,0.0337,0.0349,0.0389,0.0446,0.0511,0.0556,0.0691,0.0785,0.0975,0.1021,0.1126,0.1178,0.1223,0.1264,0.123,0.1316,0.1346,0.1267,0.129,0.1381,0.1391,0.1293,0,0,0,0,0,0,0.0304,0.0335,0.036,0.0383,0.0415,0.0482,0.0559,0.0683,0.0737,0.0928,0.0955,0.1095,0.1139,0.1227,0.1202,0.1215,0.1202,0.1343,0.1339,0.1375,0.1384,0.1393,0.1296,0,0,0,0,0]},{"header":{"parameterUnit":"m.s-1","parameterCategory":2,"la1":30.2991,"la2":30.254,"lo1":-89.0895,"lo2":-89.0444,"dy":0.0017,"dx":0.0017,"nx":28,"ny":28,"refTime":"2025-12-13T03:00:00:Z","depth":"4","parameterNumber":3,"parameterNumberName":"V-component_of_CURRENTS"},"data":[0,0,0,0,0,0,0,0,0,0,0,0,0,0,0,0,0,0,0,0,0,0,0,0,0,0,0,0,0,0,0,0,0,0,0,0,0,0,0,0,0,0,0,0,0,0,0,0,0,0,0,0,0,0,0,0,0,0,0.0429,0.0429,0,0.0397,0.0397,0.0396,0.0392,0.0392,0.0392,0.0393,0.0329,0.0327,0.0325,0,0,0,0,0,0,0,0,0,0,0,0,0,0.0439,0.0439,0.0429,0.0429,0.0428,0.0397,0.0397,0.0396,0.0391,0.0392,0.0392,0.0393,0.033,0.0327,0.0325,0,0,0,0,0,0,0,0,0,0,0,0,0,0.0423,0.0439,0.0429,0.0423,0.0422,0.0398,0.0397,0.0396,0.0391,0.0392,0.0392,0.0393,0.0331,0.0328,0.0325,0.0294,0,0,0.0315,0.0314,0,0,0,0,0,0,0,0,0.0424,0.0422,0.0424,0.0423,0.0423,0.04,0.0377,0.0361,0.0391,0.0402,0.0393,0.0393,0.035,0.0345,0.0337,0.0291,0.0289,0.0315,0.0313,0.0312,0.0311,0,0,0,0,0,0,0,0.0425,0.0423,0.0415,0.0424,0.0423,0.0406,0.0405,0.0374,0.0372,0.0401,0.0401,0.0399,0.0349,0.034,0.0336,0.0288,0.0315,0.0312,0.031,0.0309,0.0217,0.0216,0,0,0,0,0,0,0.0433,0.0425,0.0417,0.0415,0.0426,0.0406,0.0404,0.0406,0.0373,0.0369,0.0398,0.0399,0.0345,0.0339,0.0333,0.0316,0.0312,0.0309,0.0307,0.0217,0.0217,0.0216,0,0,0,0,0,0,0.0433,0.0432,0.0418,0.0419,0.0417,0.0405,0.0407,0.0405,0.0404,0.0371,0.0367,0.0401,0.0345,0.0338,0.0312,0.0312,0.0307,0.0305,0.0218,0.0217,0.0216,0.0267,0,0,0,0,0,0,0.0434,0.0433,0.044,0.042,0.0417,0.0411,0.0406,0.0404,0.0402,0.0402,0.0372,0.0366,0.0345,0.0317,0.0309,0.0308,0.0302,0.0219,0.0218,0.0217,0.0266,0.0268,0.027,0,0,0,0,0,0.0434,0.0441,0.044,0.0439,0.0426,0.0411,0.0408,0.04,0.0402,0.0402,0.0381,0.0368,0.0304,0.0314,0.0305,0.0303,0.022,0.0218,0.0217,0.0266,0.0268,0.027,0,0,0,0,0,0,0.0448,0.0441,0.0439,0.0444,0.0432,0.0411,0.0413,0.0405,0.0388,0.0391,0.0361,0.0353,0.033,0.0305,0.0317,0.027,0.0258,0.0255,0.0298,0.03,0.0302,0.0303,0.03,0,0,0,0,0,0.0454,0.0459,0.0445,0.0449,0.0448,0.0431,0.0426,0.0419,0.0401,0.0395,0.0373,0.0344,0.0314,0.03,0.0269,0.0246,0.0203,0.0236,0.0238,0.0239,0.0232,0.0167,0.0163,0.0212,0.0212,0.0212,0,0,0.0462,0.0457,0.0462,0.0453,0.0446,0.0444,0.043,0.0426,0.0422,0.0389,0.038,0.035,0.0307,0.0283,0.027,0.0266,0.0204,0.0238,0.024,0.0231,0.0165,0.0161,0.0156,0.0211,0.0211,0.0211,0,0,0.0476,0.0477,0.0486,0.0478,0.0469,0.0458,0.046,0.0442,0.0436,0.0418,0.0391,0.036,0.0322,0.0289,0.0267,0.0255,0.0214,0.0248,0.026,0.0198,0.0194,0.0189,0.0137,0.0128,0.0251,0.0251,0.0251,0,0.0485,0.0496,0.0485,0.0487,0.0487,0.0468,0.0475,0.046,0.0435,0.0424,0.0422,0.035,0.0321,0.0277,0.0276,0.0259,0.022,0.0262,0.0202,0.0196,0.0191,0.0138,0.0127,0.0253,0.0253,0.0253,0.0253,0,0.0502,0.0513,0.0517,0.0518,0.0512,0.0515,0.0496,0.0488,0.0479,0.0457,0.0418,0.0371,0.0329,0.0313,0.0293,0.0241,0.0225,0.0213,0.0202,0.0189,0.0134,0.0122,0.0257,0.0256,0.0255,0.0255,0,0,0.0518,0.053,0.0534,0.0545,0.0532,0.0531,0.0523,0.0507,0.0502,0.0466,0.0442,0.0387,0.036,0.0331,0.0296,0.0242,0.0177,0.0217,0.0213,0.0175,0.0043,0.005,0.0037,0.0157,0.0155,0.0153,0.0023,0,0.0538,0.0562,0.0557,0.0578,0.0589,0.057,0.0565,0.0543,0.0519,0.0489,0.0427,0.0392,0.0368,0.0349,0.029,0.02,0.0145,0.0213,0.0051,0.0046,0.0062,0.0023,0.0147,0.0014,0.0011,0.0008,0.0007,0,0.0554,0.0572,0.0603,0.0617,0.062,0.063,0.0622,0.0613,0.0559,0.0537,0.0483,0.0429,0.0345,0.0329,0.0169,0.0215,0.0134,0.0063,0.0057,0.0034,0.003,0.0023,-0.0016,-0.0015,-0.0013,-0.0011,-0.001,0,0.0572,0.06,0.0634,0.0638,0.0648,0.0662,0.0668,0.0634,0.063,0.0566,0.0545,0.0438,0.0386,0.0262,0.0125,0.0142,-0.006,-0.0053,-0.0127,-0.0127,-0.0114,-0.0108,-0.0172,-0.0172,-0.0172,-0.0172,-0.0171,0,0.0585,0.0613,0.0656,0.0671,0.0712,0.0705,0.0733,0.0712,0.0684,0.0669,0.058,0.0524,0.0365,0.0234,0.0113,-0.005,-0.0071,-0.0141,-0.0167,-0.0089,-0.0079,-0.0123,-0.0115,-0.0177,-0.0175,-0.0175,-0.0174,0,0.0593,0.0619,0.0662,0.0703,0.0722,0.0754,0.0794,0.0804,0.0772,0.0744,0.0724,0.0579,0.0401,0.0235,0.0018,-0.0056,-0.0218,-0.0268,-0.0177,-0.0194,-0.0238,-0.0227,-0.0363,-0.0364,-0.0364,-0.0365,-0.0366,0,0.0594,0.0619,0.0692,0.073,0.0759,0.0814,0.0846,0.0849,0.0855,0.0768,0.0743,0.0573,0.046,0.0155,-0.0018,-0.0256,-0.0275,-0.0341,-0.0287,-0.025,-0.0262,-0.0249,-0.0237,-0.0367,-0.0367,-0.0367,-0.0368,0,0.0595,0.0632,0.0672,0.0752,0.0811,0.0865,0.0911,0.0921,0.0904,0.0883,0.0746,0.058,0.0375,0.0144,-0.0041,-0.0208,-0.029,-0.035,-0.0349,-0.0298,-0.0257,-0.0265,-0.0252,-0.0371,-0.037,-0.037,-0.037,0,0.0599,0.063,0.0692,0.076,0.0833,0.0879,0.0912,0.091,0.0909,0.0829,0.0776,0.0552,0.0428,0.0165,-0.0015,-0.0173,-0.0197,-0.0211,-0.0217,-0.0216,-0.0126,-0.0049,-0.0137,0,0,0,0,0,0.0593,0.0628,0.0691,0.0765,0.0838,0.088,0.0928,0.0951,0.0948,0.0866,0.0827,0.0632,0.0348,0.0202,0.0044,-0.0028,-0.0223,-0.0214,-0.0241,-0.0387,-0.0383,-0.0301,0,0,0,0,0,0,0.0586,0.0646,0.0681,0.0753,0.0806,0.0879,0.0912,0.0915,0.0867,0.0838,0.0675,0.0619,0.0326,0.0434,0.0044,-0.0006,-0.0037,-0.0346,-0.0348,-0.0389,-0.0386,-0.0383,-0.0297,0,0,0,0,0]}]]